| time (UTC) | temp F | wind direction | speed MPH | gust MPH | rain 1hr in | rain 24hr in | rain mn in | humidity % | barometer mb |
| 20260507205003 | 51 | 237 | 10.0 | 18.0 | 0.00 | 0.11 | 0.00 | 86 | 1022.1 |
| 20260507204516 | 51 | 230 | 9.0 | 15.0 | 0.00 | 0.11 | 0.00 | 86 | 1022.2 |
| 20260507204005 | 51 | 216 | 10.0 | 17.0 | 0.00 | 0.11 | 0.00 | 86 | 1022.1 |
| 20260507202007 | 51 | 244 | 8.0 | 16.0 | 0.00 | 0.11 | 0.00 | 86 | 1021.7 |
| 20260507201004 | 51 | 236 | 11.0 | 17.0 | 0.00 | 0.11 | 0.00 | 86 | 1021.8 |
| 20260507200010 | 51 | 264 | 8.0 | 17.0 | 0.00 | 0.11 | 0.00 | 86 | 1021.7 |
| 20260507194509 | 51 | 238 | 11.0 | 17.0 | 0.00 | 0.11 | 0.00 | 87 | 1021.8 |
| 20260507193507 | 51 | 224 | 12.0 | 20.0 | 0.00 | 0.11 | 0.00 | 87 | 1021.7 |
| 20260507193006 | 51 | 242 | 11.0 | 19.0 | 0.00 | 0.11 | 0.00 | 87 | 1021.7 |
| 20260507192509 | 50 | 226 | 8.0 | 15.0 | 0.00 | 0.11 | 0.00 | 88 | 1021.7 |
| 20260507192006 | 50 | 243 | 7.0 | 14.0 | 0.00 | 0.11 | 0.00 | 88 | 1021.7 |
| 20260507190506 | 50 | 242 | 4.0 | 13.0 | 0.00 | 0.12 | 0.00 | 87 | 1021.6 |
| 20260507185003 | 50 | 246 | 3.0 | 10.0 | 0.00 | 0.11 | 0.00 | 87 | 1021.5 |
| 20260507184515 | 50 | 243 | 3.0 | 10.0 | 0.00 | 0.11 | 0.00 | 87 | 1021.5 |
| 20260507184005 | 50 | 218 | 5.0 | 13.0 | 0.00 | 0.11 | 0.00 | 87 | 1021.4 |
| 20260507183016 | 50 | 237 | 5.0 | 12.0 | 0.00 | 0.11 | 0.00 | 87 | 1021.3 |
| 20260507182506 | 50 | 227 | 5.0 | 11.0 | 0.00 | 0.11 | 0.00 | 86 | 1021.1 |
| 20260507181514 | 50 | 234 | 4.0 | 9.0 | 0.00 | 0.11 | 0.00 | 86 | 1021.1 |
| 20260507181013 | 50 | 242 | 4.0 | 9.0 | 0.00 | 0.11 | 0.00 | 86 | 1021.2 |
| 20260507180508 | 50 | 249 | 4.0 | 7.0 | 0.00 | 0.11 | 0.00 | 85 | 1021.1 |
| 20260507180013 | 50 | 258 | 4.0 | 10.0 | 0.00 | 0.11 | 0.00 | 85 | 1021.1 |
| 20260507175006 | 50 | 246 | 5.0 | 14.0 | 0.00 | 0.11 | 0.00 | 84 | 1021.0 |
| 20260507174510 | 50 | 249 | 6.0 | 14.0 | 0.00 | 0.11 | 0.00 | 84 | 1020.9 |
| 20260507174007 | 50 | 216 | 7.0 | 14.0 | 0.00 | 0.11 | 0.00 | 83 | 1020.9 |
| 20260507173016 | 51 | 241 | 9.0 | 16.0 | 0.00 | 0.11 | 0.00 | 81 | 1020.8 |
| 20260507172006 | 50 | 240 | 7.0 | 11.0 | 0.00 | 0.11 | 0.00 | 81 | 1020.7 |
| 20260507171522 | 50 | 241 | 7.0 | 11.0 | 0.00 | 0.11 | 0.00 | 81 | 1020.8 |
| 20260507171006 | 51 | 226 | 7.0 | 10.0 | 0.00 | 0.11 | 0.00 | 80 | 1020.8 |
| 20260507170507 | 51 | 245 | 6.0 | 13.0 | 0.00 | 0.11 | 0.00 | 80 | 1020.9 |
| 20260507170025 | 51 | 224 | 8.0 | 13.0 | 0.00 | 0.11 | 0.00 | 79 | 1020.8 |
| 20260507165506 | 51 | 225 | 8.0 | 12.0 | 0.00 | 0.11 | 0.00 | 79 | 1020.8 |
| 20260507165007 | 51 | 241 | 7.0 | 18.0 | 0.00 | 0.11 | 0.00 | 79 | 1021.0 |
| 20260507164517 | 51 | 247 | 7.0 | 18.0 | 0.00 | 0.11 | 0.00 | 79 | 1021.0 |
| 20260507164007 | 51 | 249 | 9.0 | 18.0 | 0.00 | 0.11 | 0.00 | 79 | 1021.0 |
| 20260507163507 | 51 | 287 | 9.0 | 18.0 | 0.00 | 0.11 | 0.00 | 79 | 1021.0 |
| 20260507163019 | 51 | 238 | 10.0 | 18.0 | 0.00 | 0.11 | 0.00 | 79 | 1020.9 |
| 20260507162510 | 51 | 280 | 9.0 | 16.0 | 0.00 | 0.11 | 0.00 | 79 | 1021.0 |
| 20260507162008 | 50 | 258 | 9.0 | 16.0 | 0.00 | 0.11 | 0.00 | 79 | 1021.0 |
| 20260507161517 | 50 | 256 | 9.0 | 15.0 | 0.00 | 0.11 | 0.00 | 79 | 1021.1 |
| 20260507160015 | 50 | 209 | 10.0 | 16.0 | 0.00 | 0.11 | 0.00 | 79 | 1021.2 |
| 20260507155011 | 50 | 270 | 7.0 | 11.0 | 0.00 | 0.11 | 0.00 | 80 | 1021.1 |
| 20260507154522 | 50 | 228 | 5.0 | 13.0 | 0.00 | 0.11 | 0.00 | 79 | 1021.1 |
| 20260507154010 | 50 | 241 | 5.0 | 13.0 | 0.00 | 0.11 | 0.00 | 79 | 1021.2 |
| 20260507153507 | 50 | 254 | 8.0 | 14.0 | 0.00 | 0.11 | 0.00 | 79 | 1021.2 |
| 20260507153032 | 50 | 234 | 7.0 | 15.0 | 0.00 | 0.11 | 0.00 | 79 | 1021.1 |
| 20260507152508 | 50 | 231 | 10.0 | 18.0 | 0.00 | 0.11 | 0.00 | 79 | 1021.1 |
| 20260507152009 | 50 | 212 | 9.0 | 18.0 | 0.00 | 0.11 | 0.00 | 78 | 1021.3 |
| 20260507151516 | 50 | 268 | 10.0 | 16.0 | 0.00 | 0.11 | 0.00 | 78 | 1021.3 |
| 20260507150508 | 50 | 247 | 11.0 | 19.0 | 0.00 | 0.11 | 0.00 | 78 | 1021.3 |
| 20260507150021 | 50 | 235 | 9.0 | 19.0 | 0.00 | 0.11 | 0.00 | 78 | 1021.3 |
| 20260507145507 | 50 | 244 | 9.0 | 16.0 | 0.00 | 0.11 | 0.00 | 77 | 1021.4 |
| 20260507145009 | 50 | 235 | 8.0 | 16.0 | 0.00 | 0.11 | 0.00 | 77 | 1021.3 |
| 20260507144522 | 50 | 262 | 7.0 | 13.0 | 0.00 | 0.11 | 0.00 | 77 | 1021.4 |
| 20260507144010 | 50 | 247 | 7.0 | 13.0 | 0.00 | 0.11 | 0.00 | 77 | 1021.5 |
| 20260507143508 | 50 | 252 | 7.0 | 15.0 | 0.00 | 0.11 | 0.00 | 77 | 1021.5 |
| 20260507143010 | 50 | 256 | 8.0 | 15.0 | 0.00 | 0.11 | 0.00 | 77 | 1021.5 |
| 20260507142003 | 50 | 239 | 5.0 | 12.0 | 0.00 | 0.11 | 0.00 | 78 | 1021.5 |
| 20260507141515 | 50 | 245 | 4.0 | 13.0 | 0.00 | 0.11 | 0.00 | 77 | 1021.4 |
| 20260507141006 | 50 | 249 | 6.0 | 14.0 | 0.00 | 0.11 | 0.00 | 77 | 1021.4 |
| 20260507140025 | 50 | 251 | 9.0 | 12.0 | 0.00 | 0.11 | 0.00 | 77 | 1021.7 |
| 20260507135506 | 50 | 243 | 8.0 | 12.0 | 0.00 | 0.11 | 0.11 | 78 | 1021.7 |
| 20260507135008 | 50 | 260 | 6.0 | 14.0 | 0.00 | 0.11 | 0.11 | 77 | 1021.7 |
| 20260507134505 | 50 | 239 | 8.0 | 14.0 | 0.00 | 0.11 | 0.11 | 77 | 1021.7 |
| 20260507134004 | 50 | 233 | 8.0 | 13.0 | 0.00 | 0.11 | 0.11 | 77 | 1021.7 |
| 20260507133503 | 49 | 287 | 4.0 | 15.0 | 0.00 | 0.11 | 0.11 | 77 | 1021.9 |
| 20260507133007 | 49 | 218 | 6.0 | 15.0 | 0.00 | 0.11 | 0.11 | 77 | 1022.0 |
| 20260507132506 | 49 | 246 | 4.0 | 14.0 | 0.00 | 0.11 | 0.11 | 77 | 1022.1 |
| 20260507132005 | 49 | 243 | 7.0 | 11.0 | 0.00 | 0.11 | 0.11 | 77 | 1022.1 |
| 20260507131512 | 49 | 252 | 3.0 | 9.0 | 0.00 | 0.11 | 0.11 | 77 | 1022.3 |
| 20260507131009 | 49 | 267 | 4.0 | 10.0 | 0.00 | 0.11 | 0.11 | 77 | 1022.3 |
| 20260507130505 | 49 | 245 | 6.0 | 16.0 | 0.00 | 0.11 | 0.11 | 77 | 1022.3 |
| 20260507125510 | 49 | 261 | 6.0 | 15.0 | 0.00 | 0.11 | 0.11 | 76 | 1022.4 |
| 20260507125006 | 49 | 246 | 8.0 | 15.0 | 0.00 | 0.11 | 0.11 | 76 | 1022.4 |
| 20260507124526 | 49 | 251 | 8.0 | 15.0 | 0.00 | 0.11 | 0.11 | 76 | 1022.4 |
| 20260507124009 | 49 | 258 | 5.0 | 17.0 | 0.00 | 0.11 | 0.11 | 76 | 1022.5 |
| 20260507123024 | 49 | 259 | 9.0 | 17.0 | 0.00 | 0.11 | 0.11 | 76 | 1022.6 |
| 20260507122507 | 49 | 257 | 8.0 | 16.0 | 0.00 | 0.11 | 0.11 | 76 | 1022.7 |
| 20260507122006 | 49 | 256 | 10.0 | 16.0 | 0.00 | 0.11 | 0.11 | 76 | 1022.8 |
| 20260507121506 | 49 | 268 | 6.0 | 12.0 | 0.00 | 0.11 | 0.11 | 76 | 1022.7 |
| 20260507121004 | 48 | 262 | 6.0 | 12.0 | 0.00 | 0.11 | 0.11 | 76 | 1022.8 |
| 20260507120503 | 48 | 274 | 7.0 | 12.0 | 0.00 | 0.11 | 0.11 | 76 | 1022.9 |
| 20260507115506 | 48 | 245 | 7.0 | 14.0 | 0.00 | 0.11 | 0.11 | 76 | 1022.9 |
| 20260507115009 | 48 | 272 | 7.0 | 11.0 | 0.00 | 0.11 | 0.11 | 76 | 1023.0 |
| 20260507114511 | 48 | 272 | 7.0 | 10.0 | 0.00 | 0.11 | 0.11 | 76 | 1023.0 |
| 20260507114008 | 48 | 266 | 3.0 | 9.0 | 0.00 | 0.11 | 0.11 | 76 | 1023.0 |
| 20260507113506 | 48 | 264 | 5.0 | 13.0 | 0.00 | 0.11 | 0.11 | 75 | 1022.9 |
| 20260507113004 | 48 | 277 | 6.0 | 13.0 | 0.00 | 0.11 | 0.11 | 75 | 1022.9 |
| 20260507112504 | 48 | 269 | 8.0 | 12.0 | 0.00 | 0.11 | 0.11 | 75 | 1023.0 |
| 20260507112003 | 48 | 267 | 8.0 | 12.0 | 0.00 | 0.11 | 0.11 | 75 | 1023.0 |
| 20260507111507 | 48 | 273 | 4.0 | 12.0 | 0.00 | 0.12 | 0.11 | 75 | 1023.0 |
| 20260507111004 | 48 | 250 | 5.0 | 12.0 | 0.00 | 0.12 | 0.11 | 75 | 1022.9 |
| 20260507110501 | 48 | 238 | 6.0 | 12.0 | 0.00 | 0.12 | 0.11 | 75 | 1023.1 |
| 20260507110011 | 48 | 270 | 5.0 | 12.0 | 0.00 | 0.12 | 0.11 | 75 | 1023.2 |
| 20260507105501 | 48 | 272 | 7.0 | 11.0 | 0.00 | 0.13 | 0.11 | 75 | 1023.1 |
| 20260507105002 | 48 | 243 | 6.0 | 10.0 | 0.00 | 0.14 | 0.11 | 75 | 1023.2 |
| 20260507104504 | 48 | 278 | 4.0 | 9.0 | 0.00 | 0.14 | 0.11 | 74 | 1023.2 |
| 20260507104001 | 48 | 245 | 6.0 | 11.0 | 0.00 | 0.15 | 0.11 | 75 | 1023.3 |
| 20260507103503 | 48 | 250 | 5.0 | 11.0 | 0.00 | 0.16 | 0.11 | 75 | 1023.6 |
| 20260507103008 | 48 | 239 | 5.0 | 11.0 | 0.00 | 0.16 | 0.11 | 75 | 1023.6 |
| 20260507102502 | 47 | 268 | 3.0 | 9.0 | 0.00 | 0.17 | 0.11 | 75 | 1023.5 |
| 20260507102006 | 48 | 270 | 3.0 | 10.0 | 0.00 | 0.18 | 0.11 | 75 | 1023.4 |
| 20260507101508 | 48 | 259 | 5.0 | 10.0 | 0.00 | 0.18 | 0.11 | 74 | 1023.5 |
| 20260507101005 | 48 | 246 | 4.0 | 14.0 | 0.00 | 0.22 | 0.11 | 74 | 1023.5 |
| 20260507100504 | 48 | 261 | 7.0 | 14.0 | 0.00 | 0.30 | 0.11 | 74 | 1023.5 |
| 20260507100005 | 48 | 288 | 8.0 | 13.0 | 0.00 | 0.34 | 0.11 | 73 | 1023.5 |
| 20260507095505 | 48 | 250 | 7.0 | 14.0 | 0.00 | 0.34 | 0.11 | 73 | 1023.4 |
| 20260507095008 | 48 | 262 | 9.0 | 14.0 | 0.00 | 0.34 | 0.11 | 73 | 1023.5 |
| 20260507094514 | 48 | 240 | 6.0 | 15.0 | 0.00 | 0.34 | 0.11 | 73 | 1023.5 |
| 20260507094003 | 48 | 268 | 9.0 | 14.0 | 0.00 | 0.34 | 0.11 | 72 | 1023.5 |
| 20260507093504 | 48 | 250 | 8.0 | 14.0 | 0.00 | 0.34 | 0.11 | 72 | 1023.5 |
| 20260507093004 | 48 | 251 | 9.0 | 14.0 | 0.00 | 0.34 | 0.11 | 72 | 1023.5 |
| 20260507092502 | 48 | 243 | 6.0 | 16.0 | 0.00 | 0.34 | 0.11 | 72 | 1023.4 |
| 20260507092001 | 48 | 264 | 9.0 | 16.0 | 0.00 | 0.34 | 0.11 | 72 | 1023.4 |
| 20260507091513 | 48 | 293 | 4.0 | 10.0 | 0.00 | 0.35 | 0.11 | 72 | 1023.4 |
| 20260507091004 | 48 | 248 | 3.0 | 11.0 | 0.00 | 0.36 | 0.11 | 71 | 1023.2 |
| 20260507090503 | 48 | 269 | 7.0 | 12.0 | 0.00 | 0.36 | 0.11 | 70 | 1023.0 |
| 20260507090008 | 48 | 244 | 7.0 | 12.0 | 0.00 | 0.36 | 0.11 | 70 | 1023.1 |
| 20260507085503 | 48 | 289 | 5.0 | 11.0 | 0.00 | 0.36 | 0.11 | 70 | 1023.2 |
| 20260507085003 | 48 | 267 | 7.0 | 11.0 | 0.00 | 0.36 | 0.11 | 70 | 1023.0 |
| 20260507084506 | 49 | 262 | 4.0 | 9.0 | 0.00 | 0.36 | 0.11 | 70 | 1022.9 |
| 20260507084003 | 49 | 251 | 4.0 | 9.0 | 0.00 | 0.36 | 0.11 | 69 | 1022.9 |
| 20260507083505 | 49 | 254 | 6.0 | 10.0 | 0.00 | 0.36 | 0.11 | 69 | 1022.8 |
| 20260507083006 | 49 | 235 | 3.0 | 12.0 | 0.00 | 0.36 | 0.11 | 68 | 1022.7 |
| 20260507082508 | 49 | 243 | 6.0 | 12.0 | 0.00 | 0.36 | 0.11 | 68 | 1022.7 |
| 20260507082005 | 49 | 255 | 4.0 | 11.0 | 0.00 | 0.36 | 0.11 | 68 | 1022.7 |
| 20260507081505 | 49 | 226 | 6.0 | 13.0 | 0.00 | 0.36 | 0.11 | 68 | 1022.6 |
| 20260507081004 | 49 | 246 | 5.0 | 13.0 | 0.00 | 0.36 | 0.11 | 68 | 1022.7 |
| 20260507080503 | 49 | 223 | 7.0 | 16.0 | 0.00 | 0.36 | 0.11 | 67 | 1022.6 |
| 20260507080005 | 49 | 218 | 8.0 | 18.0 | 0.00 | 0.36 | 0.11 | 67 | 1022.6 |
| 20260507075505 | 49 | 241 | 8.0 | 19.0 | 0.00 | 0.36 | 0.11 | 67 | 1022.7 |
| 20260507075007 | 49 | 233 | 11.0 | 19.0 | 0.00 | 0.36 | 0.11 | 68 | 1022.8 |
| 20260507074508 | 49 | 268 | 4.0 | 11.0 | 0.00 | 0.36 | 0.11 | 69 | 1022.6 |
| 20260507074005 | 49 | 229 | 5.0 | 11.0 | 0.00 | 0.36 | 0.11 | 69 | 1022.6 |
| 20260507073502 | 49 | 254 | 4.0 | 10.0 | 0.00 | 0.36 | 0.11 | 69 | 1022.7 |
| 20260507073013 | 49 | 228 | 6.0 | 9.0 | 0.00 | 0.36 | 0.11 | 69 | 1022.6 |
| 20260507072505 | 49 | 237 | 4.0 | 9.0 | 0.00 | 0.36 | 0.11 | 70 | 1022.6 |
| 20260507072004 | 49 | 245 | 4.0 | 9.0 | 0.00 | 0.36 | 0.11 | 71 | 1022.6 |
| 20260507071509 | 48 | 241 | 4.0 | 7.0 | 0.00 | 0.36 | 0.11 | 72 | 1022.6 |
| 20260507071004 | 48 | 267 | 2.0 | 8.0 | 0.00 | 0.36 | 0.11 | 72 | 1022.6 |
| 20260507070508 | 48 | 262 | 4.0 | 8.0 | 0.00 | 0.36 | 0.11 | 72 | 1022.6 |
| 20260507065503 | 48 | 260 | 2.0 | 6.0 | 0.00 | 0.36 | 0.11 | 72 | 1022.5 |
| 20260507065001 | 48 | 260 | 3.0 | 11.0 | 0.00 | 0.36 | 0.11 | 71 | 1022.6 |
| 20260507064510 | 48 | 214 | 5.0 | 11.0 | 0.00 | 0.36 | 0.11 | 70 | 1022.6 |
| 20260507064004 | 48 | 204 | 4.0 | 11.0 | 0.00 | 0.36 | 0.11 | 70 | 1022.6 |
| 20260507063505 | 48 | 220 | 6.0 | 12.0 | 0.00 | 0.36 | 0.11 | 70 | 1022.6 |
| 20260507063006 | 48 | 245 | 8.0 | 13.0 | 0.00 | 0.36 | 0.11 | 69 | 1022.7 |
| 20260507062508 | 48 | 189 | 7.0 | 14.0 | 0.00 | 0.36 | 0.11 | 70 | 1022.7 |
| 20260507062006 | 49 | 247 | 10.0 | 14.0 | 0.00 | 0.36 | 0.11 | 69 | 1022.8 |
| 20260507061526 | 49 | 237 | 8.0 | 14.0 | 0.00 | 0.36 | 0.11 | 69 | 1022.8 |
| 20260507061008 | 48 | 222 | 8.0 | 14.0 | 0.00 | 0.36 | 0.11 | 70 | 1022.7 |
| 20260507060504 | 48 | 217 | 5.0 | 13.0 | 0.00 | 0.36 | 0.11 | 71 | 1022.7 |
| 20260507060021 | 48 | 212 | 7.0 | 14.0 | 0.00 | 0.36 | 0.11 | 71 | 1022.7 |
| 20260507055507 | 48 | 226 | 7.0 | 15.0 | 0.00 | 0.36 | 0.11 | 72 | 1022.7 |
| 20260507055004 | 47 | 180 | 10.0 | 17.0 | 0.00 | 0.36 | 0.11 | 72 | 1022.7 |
| 20260507054514 | 47 | 216 | 11.0 | 24.0 | 0.00 | 0.36 | 0.11 | 73 | 1022.8 |
| 20260507054004 | 48 | 208 | 15.0 | 24.0 | 0.00 | 0.36 | 0.11 | 70 | 1022.8 |
| 20260507053504 | 49 | 213 | 10.0 | 18.0 | 0.00 | 0.36 | 0.11 | 69 | 1022.7 |
| 20260507053006 | 49 | 243 | 8.0 | 17.0 | 0.00 | 0.36 | 0.11 | 69 | 1022.5 |
| 20260507052504 | 49 | 229 | 8.0 | 15.0 | 0.00 | 0.36 | 0.11 | 69 | 1022.4 |
| 20260507052003 | 49 | 220 | 7.0 | 16.0 | 0.00 | 0.36 | 0.11 | 69 | 1022.4 |
| 20260507051508 | 49 | 227 | 8.0 | 18.0 | 0.00 | 0.36 | 0.11 | 68 | 1022.3 |
| 20260507051007 | 49 | 202 | 12.0 | 18.0 | 0.00 | 0.36 | 0.11 | 68 | 1022.4 |
| 20260507050506 | 49 | 185 | 10.0 | 16.0 | 0.00 | 0.36 | 0.11 | 69 | 1022.4 |
| 20260507050011 | 49 | 219 | 6.0 | 16.0 | 0.00 | 0.36 | 0.11 | 69 | 1022.5 |
| 20260507045508 | 49 | 256 | 11.0 | 18.0 | 0.00 | 0.36 | 0.11 | 69 | 1022.5 |
| 20260507045006 | 49 | 243 | 11.0 | 21.0 | 0.00 | 0.36 | 0.11 | 69 | 1022.4 |
| 20260507044011 | 48 | 216 | 11.0 | 22.0 | 0.00 | 0.36 | 0.11 | 68 | 1022.4 |
| 20260507043507 | 48 | 237 | 11.0 | 22.0 | 0.00 | 0.36 | 0.11 | 67 | 1022.5 |
| 20260507043024 | 49 | 233 | 12.0 | 23.0 | 0.00 | 0.36 | 0.11 | 68 | 1022.5 |
| 20260507042512 | 49 | 223 | 13.0 | 23.0 | 0.00 | 0.36 | 0.11 | 69 | 1022.4 |
| 20260507042008 | 49 | 218 | 9.0 | 17.0 | 0.00 | 0.36 | 0.11 | 71 | 1022.5 |
| 20260507041507 | 48 | 231 | 10.0 | 17.0 | 0.00 | 0.36 | 0.11 | 71 | 1022.5 |
| 20260507041003 | 48 | 253 | 11.0 | 18.0 | 0.00 | 0.36 | 0.11 | 70 | 1022.5 |
| 20260507040504 | 48 | 195 | 13.0 | 22.0 | 0.00 | 0.36 | 0.11 | 70 | 1022.6 |
| 20260507040011 | 48 | 222 | 10.0 | 22.0 | 0.00 | 0.36 | 0.11 | 69 | 1022.5 |
| 20260507035507 | 48 | 210 | 11.0 | 20.0 | 0.00 | 0.36 | 0.11 | 69 | 1022.4 |
| 20260507035007 | 48 | 197 | 13.0 | 26.0 | 0.00 | 0.36 | 0.11 | 69 | 1022.4 |
| 20260507034514 | 48 | 230 | 17.0 | 26.0 | 0.00 | 0.36 | 0.11 | 68 | 1022.4 |
| 20260507034004 | 48 | 241 | 11.0 | 19.0 | 0.00 | 0.36 | 0.11 | 69 | 1022.4 |
| 20260507033507 | 48 | 226 | 14.0 | 22.0 | 0.00 | 0.36 | 0.11 | 68 | 1022.4 |
| 20260507033015 | 48 | 220 | 13.0 | 22.0 | 0.00 | 0.36 | 0.11 | 69 | 1022.3 |
| 20260507032504 | 48 | 191 | 12.0 | 21.0 | 0.00 | 0.36 | 0.11 | 71 | 1022.1 |
| 20260507032011 | 48 | 201 | 12.0 | 22.0 | 0.00 | 0.36 | 0.11 | 71 | 1022.3 |
| 20260507031011 | 47 | 204 | 15.0 | 24.0 | 0.00 | 0.36 | 0.11 | 73 | 1022.3 |
| 20260507030013 | 45 | 189 | 8.0 | 18.0 | 0.00 | 0.35 | 0.11 | 79 | 1022.4 |
| 20260507025504 | 45 | 202 | 9.0 | 18.0 | 0.00 | 0.35 | 0.11 | 79 | 1022.5 |
| 20260507025004 | 45 | 172 | 12.0 | 23.0 | 0.00 | 0.35 | 0.11 | 77 | 1022.6 |
| 20260507024514 | 45 | 191 | 12.0 | 23.0 | 0.00 | 0.35 | 0.11 | 75 | 1022.5 |
| 20260507024006 | 46 | 220 | 16.0 | 26.0 | 0.00 | 0.35 | 0.11 | 73 | 1022.6 |
| 20260507023505 | 47 | 219 | 17.0 | 26.0 | 0.00 | 0.35 | 0.11 | 69 | 1022.6 |
| 20260507023003 | 47 | 219 | 16.0 | 24.0 | 0.00 | 0.35 | 0.11 | 69 | 1022.6 |
| 20260507022504 | 48 | 185 | 11.0 | 22.0 | 0.00 | 0.35 | 0.11 | 72 | 1022.6 |
| 20260507022004 | 47 | 233 | 13.0 | 20.0 | 0.00 | 0.35 | 0.11 | 71 | 1022.6 |
| 20260507021504 | 47 | 238 | 13.0 | 20.0 | 0.00 | 0.35 | 0.11 | 69 | 1022.7 |
| 20260507021005 | 47 | 211 | 14.0 | 21.0 | 0.00 | 0.35 | 0.11 | 70 | 1022.7 |
| 20260507020504 | 47 | 204 | 13.0 | 21.0 | 0.00 | 0.35 | 0.11 | 71 | 1022.7 |
| 20260507020005 | 46 | 246 | 13.0 | 22.0 | 0.00 | 0.35 | 0.11 | 71 | 1022.7 |
| 20260507015504 | 46 | 201 | 13.0 | 22.0 | 0.00 | 0.35 | 0.11 | 71 | 1022.6 |
| 20260507015007 | 46 | 242 | 12.0 | 18.0 | 0.00 | 0.35 | 0.11 | 73 | 1022.7 |
| 20260507014504 | 46 | 231 | 11.0 | 18.0 | 0.00 | 0.35 | 0.11 | 74 | 1022.8 |
| 20260507014003 | 45 | 221 | 11.0 | 18.0 | 0.00 | 0.35 | 0.11 | 76 | 1022.8 |
| 20260507013504 | 45 | 204 | 11.0 | 18.0 | 0.00 | 0.35 | 0.11 | 78 | 1022.8 |
| 20260507013014 | 45 | 210 | 6.0 | 13.0 | 0.00 | 0.35 | 0.11 | 79 | 1022.9 |
| 20260507012511 | 44 | 224 | 9.0 | 13.0 | 0.00 | 0.35 | 0.11 | 80 | 1022.9 |
| 20260507012003 | 44 | 229 | 8.0 | 11.0 | 0.01 | 0.35 | 0.11 | 81 | 1022.7 |
| 20260507011504 | 43 | 231 | 4.0 | 10.0 | 0.01 | 0.35 | 0.11 | 82 | 1022.9 |
| 20260507011007 | 43 | 185 | 5.0 | 11.0 | 0.01 | 0.35 | 0.11 | 81 | 1022.9 |
| 20260507010504 | 43 | 226 | 7.0 | 13.0 | 0.01 | 0.35 | 0.11 | 81 | 1022.9 |
| 20260507010004 | 43 | 193 | 9.0 | 13.0 | 0.01 | 0.35 | 0.11 | 81 | 1023.0 |
| 20260507005508 | 42 | 195 | 7.0 | 10.0 | 0.01 | 0.35 | 0.11 | 81 | 1022.9 |
| 20260507005004 | 42 | 202 | 6.0 | 9.0 | 0.01 | 0.35 | 0.11 | 81 | 1022.8 |
| 20260507004508 | 42 | 194 | 4.0 | 8.0 | 0.01 | 0.35 | 0.11 | 81 | 1022.9 |
| 20260507004004 | 42 | 232 | 3.0 | 8.0 | 0.01 | 0.35 | 0.11 | 81 | 1022.7 |
| 20260507003508 | 42 | 212 | 4.0 | 8.0 | 0.01 | 0.35 | 0.11 | 81 | 1022.7 |
| 20260507003008 | 42 | 212 | 3.0 | 10.0 | 0.01 | 0.34 | 0.10 | 80 | 1022.8 |
| 20260507002503 | 42 | 220 | 4.0 | 12.0 | 0.01 | 0.34 | 0.10 | 80 | 1022.8 |
| 20260507002009 | 41 | 205 | 6.0 | 12.0 | 0.00 | 0.33 | 0.09 | 80 | 1022.8 |
| 20260507001510 | 42 | 214 | 6.0 | 18.0 | 0.02 | 0.33 | 0.09 | 80 | 1022.8 |
| 20260507001009 | 42 | 193 | 7.0 | 18.0 | 0.02 | 0.33 | 0.09 | 79 | 1022.6 |
| 20260507000503 | 42 | 238 | 9.0 | 15.0 | 0.02 | 0.33 | 0.09 | 80 | 1022.6 |
| 20260507000004 | 42 | 233 | 7.0 | 12.0 | 0.02 | 0.33 | 0.09 | 81 | 1022.6 |
| 20260506235504 | 41 | 235 | 4.0 | 7.0 | 0.02 | 0.33 | 0.09 | 81 | 1022.4 |
| 20260506235006 | 41 | 208 | 4.0 | 8.0 | 0.02 | 0.33 | 0.09 | 81 | 1022.5 |
| 20260506234506 | 40 | 204 | 3.0 | 12.0 | 0.02 | 0.33 | 0.09 | 81 | 1022.5 |
| 20260506234006 | 40 | 189 | 5.0 | 13.0 | 0.02 | 0.33 | 0.09 | 81 | 1022.5 |
| 20260506233505 | 40 | 227 | 6.0 | 16.0 | 0.03 | 0.33 | 0.09 | 81 | 1022.5 |
| 20260506233009 | 40 | 191 | 7.0 | 18.0 | 0.02 | 0.33 | 0.08 | 80 | 1022.6 |
| 20260506232506 | 40 | 233 | 10.0 | 31.0 | 0.02 | 0.33 | 0.08 | 79 | 1022.5 |
| 20260506232004 | 40 | 213 | 14.0 | 31.0 | 0.02 | 0.33 | 0.08 | 78 | 1022.6 |
| 20260506231519 | 41 | 251 | 13.0 | 19.0 | 0.00 | 0.31 | 0.07 | 80 | 1022.6 |
| 20260506231005 | 41 | 245 | 8.0 | 14.0 | 0.00 | 0.31 | 0.07 | 81 | 1022.3 |
| 20260506230508 | 41 | 244 | 5.0 | 13.0 | 0.00 | 0.31 | 0.07 | 82 | 1022.0 |
| 20260506230020 | 40 | 245 | 5.0 | 13.0 | 0.01 | 0.31 | 0.07 | 82 | 1022.0 |
| 20260506225507 | 40 | 260 | 5.0 | 13.0 | 0.03 | 0.31 | 0.07 | 82 | 1021.9 |
| 20260506225008 | 39 | 255 | 6.0 | 13.0 | 0.04 | 0.31 | 0.07 | 82 | 1021.7 |
| 20260506224512 | 39 | 258 | 5.0 | 19.0 | 0.05 | 0.31 | 0.07 | 81 | 1021.6 |
| 20260506224006 | 39 | 238 | 10.0 | 20.0 | 0.05 | 0.31 | 0.07 | 81 | 1021.6 |
| 20260506223504 | 39 | 216 | 10.0 | 20.0 | 0.04 | 0.30 | 0.06 | 81 | 1021.8 |
| 20260506223006 | 39 | 208 | 13.0 | 20.0 | 0.04 | 0.30 | 0.06 | 82 | 1022.0 |
| 20260506222509 | 39 | 250 | 7.0 | 13.0 | 0.04 | 0.30 | 0.06 | 82 | 1022.0 |
| 20260506222006 | 39 | 236 | 4.0 | 11.0 | 0.04 | 0.30 | 0.06 | 82 | 1021.9 |
| 20260506221507 | 38 | 233 | 6.0 | 17.0 | 0.04 | 0.30 | 0.06 | 82 | 1021.8 |
| 20260506221008 | 38 | 209 | 7.0 | 20.0 | 0.04 | 0.30 | 0.06 | 81 | 1021.7 |
| 20260506220508 | 38 | 185 | 11.0 | 22.0 | 0.04 | 0.30 | 0.06 | 81 | 1021.5 |
| 20260506220005 | 38 | 221 | 14.0 | 22.0 | 0.03 | 0.29 | 0.05 | 81 | 1021.7 |
| 20260506215507 | 39 | 199 | 12.0 | 18.0 | 0.02 | 0.28 | 0.03 | 81 | 1021.7 |
| 20260506215006 | 39 | 241 | 7.0 | 17.0 | 0.00 | 0.26 | 0.02 | 81 | 1021.6 |
| 20260506214520 | 39 | 209 | 3.0 | 5.0 | 0.00 | 0.25 | 0.01 | 82 | 1021.3 |
| 20260506213508 | 39 | 193 | 2.0 | 8.0 | 0.00 | 0.25 | 0.01 | 81 | 1020.7 |
| 20260506212506 | 39 | 175 | 3.0 | 9.0 | 0.00 | 0.25 | 0.01 | 81 | 1020.8 |
| 20260506212002 | 39 | 166 | 5.0 | 9.0 | 0.00 | 0.25 | 0.01 | 81 | 1020.8 |
| 20260506211004 | 39 | 185 | 5.0 | 9.0 | 0.00 | 0.25 | 0.01 | 81 | 1020.6 |
| 20260506210507 | 39 | 175 | 5.0 | 9.0 | 0.00 | 0.25 | 0.01 | 81 | 1020.6 |
| 20260506210016 | 39 | 198 | 6.0 | 9.0 | 0.00 | 0.25 | 0.01 | 81 | 1020.7 |